FW5754 Weather Reports


Display with metric or nautical units.
time (UTC)temp
F
wind
direction
speed
MPH
gust
MPH
rain 1hr
in
rain 24hr
in
rain mn
in
humidity
%
barometer
mb
20260504081032 52 226 4.0 12.0 0.00 0.00 0.00 63 1012.8
20260504080532 52 238 5.0 12.0 0.00 0.00 0.00 63 1012.9
20260504050531 -72 301 2.0 7.0 0.00 0.00 0.00 1012.2
20260504045530 -72 301 2.0 8.0 0.00 0.00 0.00 1012.2
20260504045032 -72 301 2.0 9.0 0.00 0.00 0.00 1012.3
20260504044534 49 301 2.0 9.0 0.00 0.00 0.00 55 1012.3
20260504044030 49 302 3.0 9.0 0.00 0.00 0.00 55 1012.4
20260504043535 50 304 3.0 9.0 0.00 0.00 0.00 100 1012.3
20260504043041 -70 306 2.0 8.0 0.00 0.00 0.00 1012.3
20260504042536 -70 306 2.0 8.0 0.00 0.00 0.00 1012.2
20260504042033 -70 306 2.0 6.0 0.00 0.00 0.00 1012.2
20260504041538 -70 306 3.0 7.0 0.00 0.00 0.00 1012.2
20260504041032 -72 306 2.0 7.0 0.00 0.00 0.00 1012.1
20260504040531 -72 306 2.0 5.0 0.00 0.00 0.00 1012.1
20260504040056 -70 306 1.0 5.0 0.00 0.00 0.00 1012.0
20260504035533 -70 306 2.0 6.0 0.00 0.00 0.00 1012.0
20260504035032 -70 306 2.0 7.0 0.00 0.00 0.00 1012.0
20260504034540 -70 0 3.0 8.0 0.00 0.00 0.00 1011.9
20260504034034 -70 306 2.0 8.0 0.00 0.00 0.00 1011.9
20260504033531 -70 306 3.0 8.0 0.00 0.00 0.00 1011.9
20260504033038 -70 306 2.0 7.0 0.00 0.00 0.00 1011.9
20260504032530 -70 306 1.0 7.0 0.00 0.00 0.00 1011.9
20260504032030 -70 306 2.0 8.0 0.00 0.00 0.00 1011.9
20260504031551 49 306 2.0 8.0 0.00 0.00 0.00 59 1011.9
20260504031034 49 306 3.0 8.0 0.00 0.00 0.00 60 1012.0
20260504030529 49 306 3.0 8.0 0.00 0.00 0.00 1011.9
20260504030042 -72 306 2.0 8.0 0.00 0.00 0.00 1011.9
20260504025533 -72 306 2.0 6.0 0.00 0.00 0.00 1011.8
20260504025032 -72 0 2.0 7.0 0.00 0.00 0.00 1011.9
20260504024539 -72 307 2.0 7.0 0.00 0.00 0.00 1011.8
20260504024030 -72 307 2.0 5.0 0.00 0.00 0.00 100 1011.8
20260504023532 -72 307 2.0 5.0 0.00 0.00 0.00 1011.9
20260504023039 -72 307 2.0 8.0 0.00 0.00 0.00 1011.8
20260504022533 -72 307 2.0 8.0 0.00 0.00 0.00 1011.8
20260504022030 49 307 3.0 8.0 0.00 0.00 0.00 1011.9
20260504021539 -72 307 3.0 7.0 0.00 0.00 0.00 1011.7
20260504021030 -72 307 1.0 7.0 0.00 0.00 0.00 100 1011.8
20260504020529 49 0 3.0 8.0 0.00 0.00 0.00 62 1011.8
20260504020038 49 307 3.0 8.0 0.00 0.00 0.00 62 1011.8
20260504015534 -72 308 3.0 9.0 0.00 0.00 0.00 62 1011.8
20260504015030 49 308 2.0 9.0 0.00 0.00 0.00 63 1011.7
20260504014541 49 309 4.0 9.0 0.00 0.00 0.00 63 1011.7
20260504014031 49 311 3.0 6.0 0.00 0.00 0.00 64 1011.6
20260504013530 49 311 3.0 8.0 0.00 0.00 0.00 65 1011.5
20260504013046 48 312 3.0 8.0 0.00 0.00 0.00 66 1011.4
20260504012530 48 313 3.0 8.0 0.00 0.00 0.00 66 1011.4
20260504012030 48 313 3.0 8.0 0.00 0.00 0.00 68 1011.4
20260504011541 47 313 2.0 6.0 0.00 0.00 0.00 70 1011.3
20260504011031 47 313 2.0 6.0 0.00 0.00 0.00 71 1011.1
20260504010532 47 313 2.0 6.0 0.00 0.00 0.00 71 1011.1
20260504010040 47 313 2.0 6.0 0.00 0.00 0.00 71 1011.0
20260504005532 47 313 3.0 6.0 0.00 0.00 0.00 74 1011.1
20260504005031 46 313 2.0 6.0 0.00 0.00 0.00 76 1011.0
20260504004540 46 313 2.0 6.0 0.00 0.00 0.00 77 1011.0
20260504004031 46 313 3.0 6.0 0.00 0.00 0.00 78 1011.1
20260504003533 46 315 1.0 5.0 0.00 0.00 0.00 78 1011.0
20260504003038 46 315 1.0 5.0 0.00 0.00 0.00 78 1010.9
20260504002534 46 315 1.0 3.0 0.00 0.00 0.00 77 1010.7
20260504002030 46 315 0.0 3.0 0.00 0.00 0.00 77 1010.7
20260504001550 47 315 1.0 3.0 0.00 0.00 0.00 77 1010.7
20260504001030 47 0 0.0 0.0 0.00 0.00 0.00 76 1010.6
20260504000530 48 0 0.0 1.0 0.00 0.00 0.00 75 1010.6
20260504000042 49 0 0.0 1.0 0.00 0.00 0.00 75 1010.6
20260503235534 50 0 0.0 0.0 0.00 0.00 0.00 75 1010.4
20260503235030 50 0 0.0 3.0 0.00 0.00 0.00 75 1010.4
20260503234601 51 0 0.0 3.0 0.00 0.00 0.00 76 1010.5
20260503234030 51 315 1.0 3.0 0.00 0.00 0.00 74 1010.4
20260503233531 -68 315 1.0 3.0 0.00 0.00 0.00 1010.3
20260503233046 51 315 1.0 3.0 0.00 0.00 0.00 73 1010.3
20260503232530 52 315 2.0 4.0 0.00 0.00 0.00 100 1010.3
20260503232033 -68 315 1.0 4.0 0.00 0.00 0.00 1010.3
20260503231538 -68 315 2.0 5.0 0.00 0.00 0.00 1010.3
20260503231031 -68 315 3.0 6.0 0.00 0.00 0.00 1010.3
20260503230533 -68 315 3.0 8.0 0.00 0.00 0.00 1010.2
20260503230044 -68 315 4.0 8.0 0.00 0.00 0.00 73 1010.2
20260503225530 -68 315 6.0 9.0 0.00 0.00 0.00 1010.3
20260503225030 -66 315 6.0 9.0 0.00 0.00 0.00 72 1010.2
20260503224543 52 315 7.0 10.0 0.00 0.00 0.00 70 1010.2
20260503224033 52 315 8.0 11.0 0.00 0.00 0.00 71 1010.1
20260503223530 52 315 9.0 12.0 0.00 0.00 0.00 69 1010.0
20260503223050 52 315 8.0 13.0 0.00 0.00 0.00 69 1010.1
20260503222530 52 315 10.0 13.0 0.00 0.00 0.00 69 1010.0
20260503222033 52 315 9.0 12.0 0.00 0.00 0.00 72 1010.0
20260503221548 -68 315 9.0 17.0 0.00 0.00 0.00 1010.0
20260503221030 52 315 11.0 20.0 0.00 0.00 0.00 70 1009.9
20260503220533 52 317 15.0 20.0 0.00 0.00 0.00 66 1009.8
20260503220040 52 314 15.0 21.0 0.00 0.00 0.00 67 1009.8
20260503215531 52 293 15.0 21.0 0.00 0.00 0.00 64 1009.8
20260503215033 -68 313 14.0 18.0 0.00 0.00 0.00 1009.8
20260503214535 52 317 14.0 19.0 0.00 0.00 0.00 1009.7
20260503214032 52 312 13.0 23.0 0.00 0.00 0.00 70 1009.7
20260503213531 -68 318 17.0 23.0 0.00 0.00 0.00 1009.7
20260503213038 -66 309 18.0 23.0 0.00 0.00 0.00 1009.5
20260503212530 51 313 16.0 22.0 0.00 0.00 0.00 67 1009.5
20260503212030 51 305 17.0 22.0 0.00 0.00 0.00 70 1009.6
20260503211542 158 302 17.0 22.0 0.00 0.00 0.00 100 1009.5
20260503211030 -68 296 16.0 21.0 0.00 0.00 0.00 1009.3
20260503210530 -68 291 17.0 21.0 0.00 0.00 0.00 1009.3
20260503210041 52 293 13.0 20.0 0.00 0.00 0.00 72 1009.3
20260503205530 -68 293 16.0 22.0 0.00 0.00 0.00 1009.2
20260503205030 52 292 18.0 22.0 0.00 0.00 0.00 68 1009.3
20260503204542 51 294 17.0 22.0 0.00 0.00 0.00 69 1009.2
20260503204029 51 287 15.0 19.0 0.00 0.00 0.00 71 1009.1
20260503203529 -68 291 16.0 20.0 0.00 0.00 0.00 71 1009.1
20260503203054 51 292 16.0 22.0 0.00 0.00 0.00 71 1009.1
20260503202530 51 293 17.0 22.0 0.00 0.00 0.00 70 1009.0
20260503202033 52 293 18.0 22.0 0.00 0.00 0.00 69 1009.0
20260503201549 52 286 17.0 22.0 0.00 0.00 0.00 70 1008.9
20260503201030 52 286 17.0 22.0 0.00 0.00 0.00 70 1008.9
20260503200530 52 301 17.0 22.0 0.00 0.00 0.00 68 1008.9
20260503200050 52 288 17.0 23.0 0.00 0.00 0.00 69 1008.9
20260503195530 52 289 16.0 23.0 0.00 0.00 0.00 69 1008.9
20260503195030 52 288 15.0 21.0 0.00 0.00 0.00 69 1008.9
20260503194555 52 282 13.0 21.0 0.00 0.00 0.00 71 1008.8
20260503194030 52 263 11.0 23.0 0.00 0.00 0.00 72 1008.9
20260503193532 52 274 13.0 23.0 0.00 0.00 0.00 70 1008.9
20260503193046 52 286 12.0 19.0 0.00 0.00 0.00 70 1008.8
20260503192530 51 278 15.0 19.0 0.00 0.00 0.00 65 1008.8
20260503192029 51 286 15.0 19.0 0.00 0.00 0.00 65 1008.8
20260503191537 51 288 14.0 19.0 0.00 0.00 0.00 68 1008.9
20260503191031 51 290 15.0 19.0 0.00 0.00 0.00 66 1008.8
20260503190530 51 284 13.0 18.0 0.00 0.00 0.00 70 1008.9
20260503190043 51 288 12.0 19.0 0.00 0.00 0.00 70 1008.9
20260503185530 51 292 15.0 21.0 0.00 0.00 0.00 68 1009.0
20260503185037 51 297 17.0 21.0 0.00 0.00 0.00 67 1009.1
20260503184544 51 292 15.0 21.0 0.00 0.00 0.00 67 1009.1
20260503184035 51 290 16.0 26.0 0.00 0.00 0.00 69 1009.1
20260503183533 50 291 18.0 26.0 0.00 0.00 0.00 67 1009.2
20260503183051 50 290 20.0 28.0 0.00 0.00 0.00 66 1009.2
20260503182534 50 296 22.0 28.0 0.00 0.00 0.00 67 1009.2
20260503182034 50 297 21.0 29.0 0.00 0.00 0.00 68 1009.2
20260503181544 50 300 22.0 31.0 0.00 0.00 0.00 68 1009.2
20260503181033 50 302 23.0 31.0 0.00 0.00 0.00 69 1009.2
20260503180534 50 302 22.0 29.0 0.00 0.00 0.00 67 1009.1
20260503180057 50 290 19.0 25.0 0.00 0.00 0.00 70 1009.3
20260503175535 50 289 20.0 26.0 0.00 0.00 0.00 71 1009.2
20260503175034 50 289 19.0 26.0 0.00 0.00 0.00 72 1009.2
20260503174543 50 288 21.0 26.0 0.00 0.00 0.00 72 1009.2
20260503174031 50 288 20.0 25.0 0.00 0.00 0.00 73 1009.1
20260503173534 50 293 19.0 27.0 0.00 0.00 0.00 74 1009.1
20260503173041 50 290 19.0 28.0 0.00 0.00 0.00 70 1009.0
20260503172534 50 298 22.0 28.0 0.00 0.00 0.00 68 1009.1
20260503172034 50 302 22.0 29.0 0.00 0.00 0.00 64 1009.1
20260503171545 50 310 21.0 31.0 0.00 0.00 0.00 66 1009.2
20260503171034 50 316 23.0 33.0 0.00 0.00 0.00 64 1009.0
20260503170536 50 312 24.0 33.0 0.00 0.00 0.00 66 1009.0
20260503150530 49 315 17.0 24.0 0.00 0.00 0.00 72 1009.0
20260503131029 46 304 17.0 22.0 0.00 0.00 0.00 73 1009.0
20260503130530 46 304 15.0 21.0 0.00 0.00 0.00 74 1009.2
20260503110532 44 321 18.0 22.0 0.00 0.00 0.00 73 1009.2
20260503081542 46 348 20.0 26.0 0.00 0.00 0.00 68 1008.6